STARLINK-35787

Last updated on Fri Dec 19 2025 00:02:09 GMT+0000 (Coordinated Universal Time)

1 66978U 25288V 25352.58336806 -.01499197 00000+0 -65452-2 0 9992 2 66978 43.0015 131.3171 0001531 273.9970 332.6272 15.86335143 2775
UTC large
Height (km)
Speed (km/s)
/
Latitude / Longitude
Inclination (degrees)
Orbital Period (minutes)
Azimuth
Elevation
Range (km)
Doppler Factor

Next 0 passes for location: London (51.5072 / 0.1276)

Sorry there are no passes over London.